TimeCDT,TemperatureF,Dew PointF,Humidity,Sea Level PressureIn,VisibilityMPH,Wind Direction,Wind SpeedMPH,Gust SpeedMPH,PrecipitationIn,Events,Conditions,WindDirDegrees,DateUTC
12:52 AM,63.0,52.0,67,29.75,10.0,Calm,Calm,-,N/A,,Clear,0,2012-09-02 05:52:00
1:52 AM,61.0,51.1,70,29.75,10.0,NNE,4.6,-,N/A,,Clear,20,2012-09-02 06:52:00
2:52 AM,57.9,50.0,75,29.75,10.0,Calm,Calm,-,N/A,,Clear,0,2012-09-02 07:52:00
3:52 AM,59.0,53.1,81,29.77,10.0,SW,4.6,-,N/A,,Scattered Clouds,220,2012-09-02 08:52:00
4:52 AM,62.1,53.1,72,29.76,10.0,SW,5.8,-,N/A,,Mostly Cloudy,230,2012-09-02 09:52:00
5:52 AM,64.4,53.6,68,29.79,10.0,Calm,Calm,-,N/A,,Partly Cloudy,0,2012-09-02 10:52:00
6:52 AM,64.9,51.1,61,29.79,10.0,WSW,5.8,-,N/A,,Partly Cloudy,240,2012-09-02 11:52:00
7:52 AM,66.2,50.0,56,29.82,10.0,West,11.5,-,N/A,,Scattered Clouds,260,2012-09-02 12:52:00
8:52 AM,64.9,51.1,61,29.83,10.0,Calm,Calm,-,N/A,,Partly Cloudy,0,2012-09-02 13:52:00
9:52 AM,64.9,52.0,63,29.86,10.0,SW,5.8,-,N/A,,Clear,220,2012-09-02 14:52:00
10:52 AM,66.9,50.0,54,29.88,10.0,WSW,12.7,-,N/A,,Clear,250,2012-09-02 15:52:00
11:52 AM,75.9,34.0,22,29.87,10.0,West,13.8,-,N/A,,Clear,270,2012-09-02 16:52:00
12:52 PM,80.1,27.0,14,29.85,10.0,West,18.4,25.3,N/A,,Clear,280,2012-09-02 17:52:00
1:52 PM,81.0,23.0,12,29.84,10.0,WSW,18.4,28.8,N/A,,Clear,240,2012-09-02 18:52:00
2:52 PM,82.0,25.0,12,29.84,10.0,West,19.6,26.5,N/A,,Clear,260,2012-09-02 19:52:00
3:52 PM,81.0,19.9,10,29.83,10.0,West,21.9,33.4,N/A,,Clear,260,2012-09-02 20:52:00
4:52 PM,82.0,23.0,11,29.82,10.0,West,18.4,28.8,N/A,,Clear,270,2012-09-02 21:52:00
5:52 PM,81.0,26.1,13,29.83,10.0,West,21.9,28.8,N/A,,Clear,270,2012-09-02 22:52:00
7:52 PM,78.1,25.0,14,29.83,10.0,West,13.8,-,N/A,,Clear,260,2012-09-03 00:52:00
8:52 PM,70.0,27.0,20,29.84,10.0,West,6.9,-,N/A,,Clear,260,2012-09-03 01:52:00
9:52 PM,57.9,28.9,33,29.87,10.0,Variable,3.5,-,N/A,,Clear,0,2012-09-03 02:52:00
10:52 PM,59.0,30.2,34,29.87,10.0,Calm,Calm,-,N/A,,Clear,0,2012-09-03 03:52:00
11:52 PM,53.1,32.0,45,29.85,10.0,Calm,Calm,-,N/A,,Clear,0,2012-09-03 04:52:00